Showing default

PADRE, 64559

Orbit data source: Space-Track

PADRE, 64559 is a Bulgarian payload satellite in SSO that was launched on Mon, 23 Jun 2025 UTC via an FALCON 9 launch vehicle from the Air Force Western Test Range (AFWTR). Payload-class satellites include a variety of spacecraft equipped with specific instruments for various scientific and technological missions. These include communications satellites like Starlink; space stations such as the ISS; scientific satellites like the Hubble; Earth observation satellites from companies like Planet Labs, Umbra, and HawkEye 360; GPS; miniature CubeSats for education and research; and military/defense satellites.

Loading next visibility...
Identifier
64559, 2025-135AH
Orbit
SSO
Country
Flag of BGBG / BGR
Related business
Manufacturer
Endurosat
Mission
Operational Amateur Astronomy
Bus & Motor
CUBESAT 12U, Unknown motor
Mass
~20 kg wet, ~20 kg dry
Launch date (UTC)
2025-06-23 (9 months ago)
Launch vehicle
FALCON 9
Launch site
Air Force Western Test Range (AFWTR)
Object type
Payload
Rocket body
Debris
Shape & HBR
Box + 4 Pan, 0.3 m
Radar Cross Section
0.127 m², Small (<0.1 m²)

Expand to show TLE details & history
Last TLE update: 15 hours ago

TLE from 15 hours ago
0 PADRE
1 64559U 25135AH  26067.90350348  .00002836  00000-0  28453-3 0  9992
2 64559  97.7591 182.9705 0001287 191.9538 168.1651 14.92109137 38898
Epoch: 2026-03-08T21:41Z
TLE epoch observation values (Epoch: 2026-03-08T21:41:02.700Z)
Latitude
Longitude
51.10513°
Altitude
595.28 km
Speed
7.562 km/s
True Right ascension
12h 11m 52s
True Declination
0° 00' 00"
Sunlit
Object was in full shadow at epoch
Visualization orbit readout
Latitude
Unknown
Longitude
Unknown
Altitude
Unknown
Speed
Unknown
Apparent Right ascension
Unknown
Apparent Declination
Unknown
Sunlit
N/A
Visualization observer readout
Local Sidereal Time
16:35:57
Azimuth
Unknown
Elevation
Unknown
Doppler factor
Unknown
Orbital elements
Apogee altitude
589.275 km
Perigee altitude
587.482 km
Semi-major axis
6,966.516 km
Eccentricity
0.00013
Inclination
97.7591°
RAAN
182.9705°
Arg. of periapsis
191.9538°
True anomaly
168.16812°
Mean anomaly
168.1651°
Eccentric anomaly
168.16661°
Mean motion
3.73267 °/min
Orbital period
96.45 mins
BSTAR
0.00028453
Loading maneuver chart data...
Computing Atmospheric mass density...
Loading historical data...
Loading historical data...
Loading historical data...
Loading historical data...
Loading historical data...
Loading historical data...
Loading historical data...

Documentation

Showing up to 5 results
|